Location: Cortada de Papelón
(10.0378°N, 66.9528°W)
Time: 10:50:46
(UTC+00:00)

Cosmos 2082 Rocket - Pass Details

Date: 13 June 2024
Orbit: 834 x 852 km, 71.0° (Epoch: 19 July)

Event Time Altitude Azimuth Distance (km) Brightness Sun altitude
Rises 23:32:24 0° 193° (SSW) 3,405 5.2 -10.5°
Reaches altitude 10° 23:34:51 10° 192° (SSW) 2,471 4.5 -11.0°
Maximum altitude 23:40:32 81° 106° (ESE) 863 2.2 -12.2°
Drops below altitude 10° 23:46:13 10° 19° (NNE) 2,470 4.7 -13.5°
Sets 23:48:39 0° 18° (NNE) 3,405 5.5 -14.0°
